Date String (YYYY-MM-DD hh:mm:ss) UTC,Instrument flags,absolute air pressure of the measurement (hPa),sample flow rate (lpm),inlet stack bypass flow (lpm),air temperature of the measurement (°C),ambient temperature measured by the external sensor (°C),aerosol sample conditioner tube jacket temperature (°C),OPC LED temperature (°C),internal box temperature (°C),relative humidity of the measurement (%),span deviation,mass concentration of particles derived from Lorenz-Mie calculation of OPC scattering (μg/m³),mass concentration of particles derived from Lorenz-Mie calculation of OPC scattering (μg/m³),mass concentration of particles derived from Lorenz-Mie calculation of OPC scattering (μg/m³)
DateTimeUTC,F1_M11,P_M11,Q1_M11,Q2_M11,T1_M11,T2_M11,T3_M11,T4_M11,T5_M11,U1_M11,ZSPAN_M11,X0_M11,X2_M11,X1_M11
2023-09-26 02:00:00,SystemResetWarning,0835.4,5.01,000.00,027.9,025.8,000.0,036.4,029.6,11.4,0002.9,0016.22,0004.53,0003.34
2023-09-26 02:01:00,SystemResetWarning,0835.3,5.00,000.00,028.0,026.1,000.0,036.4,029.6,11.4,0002.9,0015.62,0004.53,0003.33
2023-09-26 02:02:00,SystemResetWarning,0835.4,5.00,000.00,028.0,026.3,000.0,036.4,029.7,11.4,0002.2,0015.03,0004.55,0003.33
2023-09-26 02:03:00,SystemResetWarning,0835.4,5.00,000.00,028.0,026.6,000.0,036.4,029.7,11.3,0001.8,0015.16,0004.53,0003.34
2023-09-26 02:04:00,SystemResetWarning,0835.3,5.00,000.00,028.0,026.7,000.0,036.4,029.8,11.3,0001.9,0015.43,0004.48,0003.35
2023-09-26 02:05:00,SystemResetWarning,0835.4,5.00,000.00,028.1,026.9,000.0,036.4,029.8,11.3,0001.8,0015.51,0004.42,0003.35
2023-09-26 02:06:00,SystemResetWarning,0835.4,5.00,000.00,028.1,027.0,000.0,036.4,029.9,11.2,0001.5,0015.87,0004.36,0003.35
2023-09-26 02:07:00,SystemResetWarning,0835.4,5.00,000.00,028.2,027.1,000.0,036.5,029.9,11.2,0001.8,0015.84,0004.30,0003.35
2023-09-26 02:08:00,SystemResetWarning,0835.5,4.99,000.00,028.2,027.2,000.0,036.5,030.0,11.2,0002.2,0015.31,0004.23,0003.34
2023-09-26 02:09:00,SystemResetWarning,0835.5,4.99,000.00,028.2,027.2,000.0,036.5,030.0,11.2,0000.7,0016.86,0004.13,0003.33
2023-09-26 02:10:00,SystemResetWarning,0835.4,4.99,000.00,028.3,025.6,000.0,036.5,030.0,11.1,0000.0,0016.52,0004.12,0003.33
2023-09-26 02:11:00,SystemResetWarning,0835.4,5.00,000.00,028.2,024.5,000.0,036.5,029.8,11.2,0000.0,0016.65,0004.07,0003.33
2023-09-26 02:12:00,SystemResetWarning,0835.4,5.01,000.00,028.1,024.5,000.0,036.4,029.6,11.2,0000.0,0016.52,0004.04,0003.34
2023-09-26 02:13:00,SystemResetWarning,0835.4,5.01,000.00,028.0,024.7,000.0,036.4,029.5,11.3,0000.0,0017.27,0004.06,0003.34
2023-09-26 02:14:00,SystemResetWarning,0835.5,5.00,000.00,028.0,025.1,000.0,036.4,029.5,11.4,0000.0,0017.32,0004.03,0003.32
2023-09-26 02:15:00,SystemResetWarning,0835.5,5.00,000.00,027.9,025.4,000.0,036.4,029.5,11.4,0000.0,0016.71,0004.04,0003.32
2023-09-26 02:16:00,SystemResetWarning,0835.5,5.01,000.00,027.9,025.8,000.0,036.4,029.5,11.3,0000.0,0016.51,0004.08,0003.32
2023-09-26 02:17:00,SystemResetWarning,0835.5,5.00,000.00,028.0,026.1,000.0,036.4,029.6,11.3,0000.0,0016.31,0004.12,0003.33
2023-09-26 02:18:00,SystemResetWarning,0835.5,5.00,000.00,028.0,026.3,000.0,036.4,029.6,11.3,0000.0,0017.00,0004.18,0003.33
2023-09-26 02:19:00,SystemResetWarning,0835.4,5.00,000.00,028.0,026.5,000.0,036.4,029.7,11.3,0000.0,0017.25,0004.23,0003.34
2023-09-26 02:20:00,SystemResetWarning,0835.5,5.01,000.00,028.0,026.7,000.0,036.4,029.7,11.3,0000.0,0015.92,0004.21,0003.34
2023-09-26 02:21:00,SystemResetWarning,0835.5,5.00,000.00,028.1,026.8,000.0,036.4,029.8,11.3,0000.0,0015.47,0004.23,0003.33
2023-09-26 02:22:00,SystemResetWarning,0835.5,5.00,000.00,028.1,026.9,000.0,036.4,029.8,11.3,0000.0,0014.63,0004.22,0003.33
2023-09-26 02:23:00,SystemResetWarning,0835.5,5.00,000.00,028.1,027.0,000.0,036.5,029.9,11.3,0000.0,0015.16,0004.26,0003.32
2023-09-26 02:24:00,SystemResetWarning,0835.5,5.00,000.00,028.2,027.1,000.0,036.5,029.9,11.3,-000.4,0014.78,0004.31,0003.33
2023-09-26 02:25:00,SystemResetWarning,0835.5,5.00,000.00,028.2,027.2,000.0,036.5,030.0,11.2,-001.8,0014.21,0004.33,0003.33
2023-09-26 02:26:00,SystemResetWarning,0835.5,4.99,000.00,028.2,027.3,000.0,036.5,030.0,11.2,-001.6,0013.97,0004.34,0003.33
2023-09-26 02:27:00,SystemResetWarning,0835.5,4.99,000.00,028.3,026.8,000.0,036.5,030.0,11.2,-001.8,0014.24,0004.29,0003.32
2023-09-26 02:28:00,SystemResetWarning,0835.5,5.01,000.00,028.2,025.0,000.0,036.5,029.8,11.2,-001.6,0014.69,0004.28,0003.32
2023-09-26 02:29:00,SystemResetWarning,0835.5,5.01,000.00,028.2,024.4,000.0,036.5,029.7,11.2,-000.4,0013.17,0004.26,0003.31
2023-09-26 02:30:00,SystemResetWarning,0835.5,5.00,000.00,028.0,024.5,000.0,036.5,029.5,11.3,0000.0,0012.25,0004.21,0003.31
2023-09-26 02:31:00,SystemResetWarning,0835.5,5.00,000.00,028.0,024.9,000.0,036.5,029.4,11.3,0000.0,0011.52,0004.17,0003.32
2023-09-26 02:32:00,SystemResetWarning,0835.5,5.00,000.00,027.9,025.2,000.0,036.4,029.4,11.4,0000.0,0012.26,0004.17,0003.32
2023-09-26 02:33:00,SystemResetWarning,0835.5,5.00,000.00,027.9,025.6,000.0,036.4,029.5,11.4,0000.0,0013.27,0004.21,0003.33
2023-09-26 02:34:00,SystemResetWarning,0835.5,5.00,000.00,027.9,025.9,000.0,036.4,029.5,11.4,0000.0,0013.08,0004.20,0003.33
2023-09-26 02:35:00,SystemResetWarning,0835.5,4.99,000.00,027.9,026.1,000.0,036.4,029.6,11.4,0000.0,0012.40,0004.13,0003.32
2023-09-26 02:36:00,SystemResetWarning,0835.5,4.99,000.00,028.0,026.3,000.0,036.4,029.7,11.4,0000.0,0012.23,0004.14,0003.32
2023-09-26 02:37:00,SystemResetWarning,0835.5,5.00,000.00,028.0,026.5,000.0,036.4,029.7,11.3,0000.0,0012.04,0004.10,0003.31
2023-09-26 02:38:00,SystemResetWarning,0835.5,5.01,000.00,028.0,026.7,000.0,036.4,029.7,11.3,0000.0,0012.58,0004.12,0003.32
2023-09-26 02:39:00,SystemResetWarning,0835.5,5.01,000.00,028.1,026.8,000.0,036.4,029.8,11.3,0000.0,0011.89,0004.13,0003.32
2023-09-26 02:40:00,SystemResetWarning,0835.5,4.99,000.00,028.1,026.9,000.0,036.4,029.8,11.3,0000.0,0011.66,0004.14,0003.33
2023-09-26 02:41:00,SystemResetWarning,0835.5,4.99,000.00,028.1,027.0,000.0,036.4,029.9,11.3,0000.0,0011.65,0004.12,0003.33
2023-09-26 02:42:00,SystemResetWarning,0835.5,4.99,000.00,028.2,027.1,000.0,036.5,029.9,11.3,0000.0,0011.71,0004.14,0003.33
2023-09-26 02:43:00,SystemResetWarning,0835.5,5.00,000.00,028.2,027.2,000.0,036.5,030.0,11.3,0000.0,0012.01,0004.16,0003.33
2023-09-26 02:44:00,SystemResetWarning,0835.6,5.01,000.00,028.2,027.3,000.0,036.5,030.0,11.3,0000.0,0011.95,0004.16,0003.33
2023-09-26 02:45:00,SystemResetWarning,0835.5,5.01,000.00,028.3,027.3,000.0,036.5,030.0,11.3,0000.0,0012.55,0004.17,0003.34
2023-09-26 02:46:00,SystemResetWarning,0835.5,4.98,000.00,028.3,026.2,000.0,036.6,030.0,11.2,0000.0,0012.99,0004.22,0003.35
2023-09-26 02:47:00,SystemResetWarning,0835.6,5.02,000.00,028.2,024.7,000.0,036.5,029.8,11.3,0000.8,0013.02,0004.19,0003.36
2023-09-26 02:48:00,SystemResetWarning,0835.5,5.00,000.00,028.2,024.4,000.0,036.5,029.7,11.3,0002.2,0013.06,0004.17,0003.37
2023-09-26 02:49:00,SystemResetWarning,0835.5,5.00,000.00,028.0,024.6,000.0,036.5,029.5,11.4,0002.4,0013.05,0004.16,0003.37
2023-09-26 02:50:00,SystemResetWarning,0835.4,5.00,000.00,028.0,025.0,000.0,036.5,029.5,11.4,0002.5,0012.42,0004.12,0003.36
2023-09-26 02:51:00,SystemResetWarning,0835.5,4.99,000.00,028.0,025.3,000.0,036.4,029.5,11.5,0001.1,0012.29,0004.10,0003.35
2023-09-26 02:52:00,SystemResetWarning,0835.6,5.01,000.00,027.9,025.6,000.0,036.5,029.5,11.5,0000.0,0012.39,0004.10,0003.35
2023-09-26 02:53:00,SystemResetWarning,0835.6,5.00,000.00,028.0,025.9,000.0,036.4,029.6,11.5,0000.0,0012.31,0004.08,0003.35
2023-09-26 02:54:00,SystemResetWarning,0835.6,5.00,000.00,028.0,026.2,000.0,036.4,029.6,11.4,0000.0,0011.68,0004.10,0003.36
2023-09-26 02:55:00,SystemResetWarning,0835.6,5.00,000.00,028.0,026.4,000.0,036.4,029.7,11.4,0000.0,0010.31,0004.05,0003.36
2023-09-26 02:56:00,SystemResetWarning,0835.6,4.99,000.00,028.0,026.6,000.0,036.4,029.7,11.4,0000.0,0010.04,0004.08,0003.36
2023-09-26 02:57:00,SystemResetWarning,0835.6,4.99,000.00,028.0,026.7,000.0,036.4,029.8,11.4,0000.0,0010.05,0004.09,0003.36
2023-09-26 02:58:00,SystemResetWarning,0835.6,5.01,000.00,028.1,026.8,000.0,036.4,029.8,11.4,0000.0,0009.95,0004.12,0003.36
2023-09-26 02:59:00,SystemResetWarning,0835.6,5.01,000.00,028.1,026.9,000.0,036.4,029.8,11.4,0000.0,0009.91,0004.16,0003.36
